Probability
1 1 0 0 0 0 0 0 0 0 0 0 0 0 0 0 0 0 0 0 0 0 0 0 0 0 0 0 0 0 0 0 0 0 0 0 0 0 0 0 0 0 0 0
1 0 0 0 0 0 0 0 0 0 0 0 0 0 0 0 0 0 0 0 0 0 0 0 0 0 0 0 0 0 0 0 0 0 0 0 0 0 0 0 0 0 0 0
0 0 0 0 0 0 0 0 0 0 0 0 0 0 0 0 0 0 0 0 0 0 0 0 0 0 0 0 0 0 0 0 0 0 0 0 0 0 0 0 0 0 0 0
0 0 0 0 0 0 0 0 0 0 0 0 0 0 0 0 0 0 0 0 0 0 0 0 0 0 0 0 0 0 0 0 0 0 0 0 0 0 0 0 0 0 0 0
0 0 0 0 0 0 0 0 0 0 0 0 0 0 0 0 0 0 0 0 0 0 0 0 1 1 0 0 0 0 0 0 0 0 0 0 0 0 0 0 0 0 0 0
0 0 0 0 0 0 0 0 0 0 0 0 0 0 0 0 0 0 0 0 0 0 0 1 2 2 1 0 0 0 0 0 0 0 0 0 0 0 0 0 0 0 0 0
0 0 0 0 0 0 0 0 0 0 0 0 0 0 0 0 0 0 0 0 0 0 0 2 4 3 1 0 0 0 0 0 0 0 0 0 0 0 0 0 0 0 0 0
0 0 0 0 0 0 0 0 0 0 0 0 0 0 0 0 0 0 0 0 0 0 1 5 6 4 1 0 0 0 0 0 0 0 0 0 0 0 0 0 0 0 0 0
0 0 0 0 0 0 0 0 0 0 0 0 0 0 0 0 0 0 0 0 0 0 2 6 8 4 1 1 1 1 0 0 0 0 0 0 0 0 0 0 0 0 0 0
0 0 0 0 0 0 0 0 0 0 0 0 0 0 0 0 0 0 0 0 0 0 2 6 7 4 2 2 2 1 0 0 0 0 0 0 0 0 0 0 0 0 0 0
0 0 0 0 0 0 0 0 0 0 0 0 0 0 0 0 0 0 0 0 0 0 1 5 6 4 3 3 2 1 0 0 0 0 0 0 0 0 0 0 0 0 0 0
0 0 0 0 0 0 0 0 0 0 0 0 0 0 0 0 0 0 0 0 0 0 2 4 5 3 2 3 3 1 0 0 0 0 0 0 0 0 0 0 0 0 0 0
0 0 0 0 0 0 0 0 0 0 0 0 0 0 0 0 0 0 0 0 0 1 2 5 5 3 2 3 3 2 1 0 0 0 0 0 0 0 0 0 0 0 0 0
0 0 0 0 0 0 0 0 0 0 0 0 0 0 0 0 0 0 0 0 0 1 2 4 5 5 3 3 3 2 1 0 0 0 0 0 0 0 0 0 0 0 0 0
0 0 0 0 0 0 0 0 0 0 0 0 0 0 0 0 0 0 0 0 0 0 1 3 4 4 3 2 1 1 0 0 0 0 0 0 0 0 0 0 0 0 0 0
0 0 0 0 0 0 0 0 0 0 0 0 0 0 0 0 0 0 0 0 0 0 0 1 1 1 1 1 0 0 0 0 0 0 0 0 0 0 0 0 0 0 0 0
0 0 0 0 0 0 0 0 0 0 0 0 0 0 0 0 0 0 0 0 0 0 0 0 0 0 0 0 0 0 0 0 0 0 0 0 0 0 0 0 0 0 0 0
0 0 0 0 0 0 0 0 0 0 0 0 0 0 0 0 0 0 0 0 0 0 0 0 0 0 0 0 0 0 0 0 0 0 0 0 0 0 0 0 0 0 0 0
0 0 0 0 0 0 0 0 0 0 0 0 0 0 0 0 0 0 0 0 0 0 0 0 0 0 0 0 0 0 0 0 0 0 0 0 0 0 0 0 0 0 0 0
0 0 0 0 0 0 0 0 0 0 0 0 0 0 0 0 0 0 0 0 0 0 0 0 0 0 0 0 0 0 0 0 0 0 0 0 0 0 0 0 0 0 0 0
0 0 0 0 0 0 0 0 0 0 0 0 0 0 0 0 0 0 0 0 0 0 0 0 0 0 0 0 0 0 0 0 0 0 0 0 0 0 0 0 0 0 0 0
0 0 0 0 0 0 0 0 0 0 0 0 0 0 0 0 0 0 0 0 0 0 0 0 0 0 0 0 0 0 0 0 0 0 0 0 0 0 0 0 0 0 0 0
0 0 0 0 0 0 0 0 0 0 0 0 0 0 0 0 0 0 0 0 0 0 0 0 0 0 0 0 0 0 0 0 0 0 0 0 0 0 0 0 0 0 0 0
0 0 0 0 0 0 0 0 0 0 0 0 0 0 0 0 0 0 0 0 0 0 0 0 0 0 0 0 0 0 0 0 0 0 0 0 0 0 0 1 0 0 0 0
0 0 0 0 0 0 0 0 0 0 0 0 0 0 0 0 0 0 0 0 0 0 0 0 0 0 0 0 0 0 0 0 0 0 0 0 0 0 0 0 0 0 0 0
0 0 0 0 0 0 0 0 0 0 0 0 0 0 0 0 0 0 0 0 0 0 0 0 0 0 0 0 0 0 0 0 0 0 0 0 0 0 0 0 0 0 0 0
Wind_Speed
10 8 8 8 8 3 6 6 2 1 2 4 6 7 7 8 9 8 7 7 8 8 9 10 9 8 7 5 3 4 4 5 3 1 1 2 2 1 2 2 3 3 3 4
9 10 10 8 5 4 8 7 2 3 3 5 8 8 7 7 10 9 8 8 9 9 9 10 9 8 7 6 3 4 5 5 5 2 2 1 1 1 2 1 2 3 4 4
12 10 8 7 7 8 7 4 4 4 7 9 10 8 7 5 6 6 6 5 7 10 11 12 10 8 7 7 5 2 6 6 5 3 2 2 1 1 1 1 2 2 2 3
2 1 7 8 7 6 2 4 4 6 7 6 6 6 5 4 5 5 5 4 4 6 8 11 10 9 8 7 5 4 6 5 5 3 2 1 1 1 1 1 1 0 2 3
3 6 7 6 3 3 2 4 7 10 9 10 9 7 1 5 5 5 7 6 5 5 8 9 10 10 7 7 5 4 6 6 5 3 4 1 0 1 1 1 1 1 1 1
5 6 4 1 1 2 3 7 11 11 8 8 4 3 2 3 4 2 4 7 7 6 7 8 9 9 7 7 6 5 5 5 5 3 3 3 2 1 1 1 1 1 0 1
5 6 4 1 3 5 6 7 4 3 2 3 4 3 0 6 6 4 2 2 7 6 7 9 10 9 8 8 7 6 6 5 5 4 4 3 3 1 2 0 0 1 1 1
5 7 8 6 6 3 5 6 4 3 4 6 6 2 4 9 6 3 1 0 3 7 7 8 10 9 8 9 8 7 7 6 5 5 4 2 3 2 1 1 0 1 1 2
2 3 6 4 3 5 5 4 6 7 10 8 4 2 5 7 5 3 2 2 3 6 7 8 10 10 9 9 8 7 7 6 6 4 3 2 2 2 1 0 1 1 0 1
3 2 5 5 3 5 7 7 5 4 5 6 7 5 4 5 5 3 1 4 4 5 7 8 9 9 9 9 8 8 7 7 6 6 4 3 2 2 2 1 1 2 2 1
7 2 4 6 6 7 7 6 5 5 5 5 5 4 3 4 4 3 3 1 4 6 6 7 7 9 9 9 9 8 7 7 6 6 5 4 4 3 3 3 1 1 2 2
5 5 3 5 2 2 4 6 6 5 6 7 6 4 3 5 3 1 1 1 2 5 7 7 8 8 9 10 10 9 8 7 6 6 5 5 4 4 3 4 4 3 2 1
8 5 3 1 1 2 5 6 6 6 6 7 8 5 0 1 1 2 3 3 3 6 7 7 7 8 9 9 9 9 8 8 7 6 5 5 5 5 4 4 4 3 2 1
4 8 8 6 5 5 6 7 6 7 7 9 10 10 8 7 6 5 3 3 4 6 8 8 8 8 8 9 9 9 8 8 8 7 5 5 5 5 4 3 4 3 2 2
5 9 11 11 10 10 11 11 9 10 11 12 12 10 8 8 7 7 6 4 3 4 7 9 9 9 8 9 9 9 9 8 9 8 7 6 5 5 4 3 3 2 2 2
6 9 12 13 13 13 13 13 12 12 12 12 10 7 7 7 6 6 7 6 4 3 4 7 10 11 11 10 10 8 10 9 8 8 8 7 6 5 5 5 5 4 3 2
9 11 12 12 13 14 13 10 9 6 6 6 6 6 7 8 8 7 7 7 7 5 4 5 8 10 11 12 12 10 10 10 9 9 8 8 7 6 6 5 5 5 4 3
12 11 8 10 12 14 8 3 2 1 2 3 4 5 7 7 6 4 6 7 7 8 5 3 5 7 9 10 12 11 10 11 10 9 9 8 8 6 6 5 5 5 4 4
11 10 8 9 11 12 10 5 5 3 2 4 5 7 9 10 6 6 11 10 8 7 6 4 4 5 8 9 11 11 11 11 11 10 9 9 8 7 6 6 6 5 5 4
6 7 8 8 11 11 5 6 6 4 1 5 6 8 10 10 6 7 12 11 11 9 7 6 3 3 5 7 8 10 10 11 11 10 9 8 8 8 7 7 6 4 4 4
5 6 8 10 12 9 5 5 5 3 3 7 8 9 10 9 8 9 11 11 10 8 8 7 4 3 3 5 7 8 8 9 9 9 9 8 8 8 7 6 5 4 3 3
9 7 7 8 11 4 8 6 6 6 7 7 8 8 9 9 10 10 11 10 10 9 8 7 5 4 2 3 5 7 7 7 9 9 9 8 8 7 6 6 4 4 3 3
7 5 5 6 5 3 5 5 6 7 8 8 8 9 10 10 10 11 11 10 10 10 8 7 6 5 4 4 5 6 6 7 9 10 9 8 8 6 6 6 5 4 3 3
10 10 10 10 8 8 6 5 4 6 7 8 9 9 10 10 11 11 10 10 10 10 9 7 7 6 5 5 5 6 5 7 9 10 9 8 8 7 6 5 4 4 3 3
11 11 12 14 12 11 7 7 8 8 9 9 10 10 11 11 10 10 9 9 9 10 9 8 7 7 7 6 5 5 6 7 9 10 9 8 7 8 6 5 2 3 3 3
13 13 12 12 10 10 10 10 10 10 10 11 11 11 10 10 10 10 9 8 9 10 10 10 9 9 9 8 6 5 7 8 9 9 9 7 7 7 7 8 6 9 6 8
Wind_Direction
184 187 199 211 211 229 306 287 244 246 169 248 263 264 244 203 197 207 211 201 191 179 170 146 135 129 134 134 150 129 135 121 105 64 20 48 54 9 58 61 59 5 11 6
179 207 204 202 213 227 256 283 344 9 305 275 278 273 259 219 195 198 212 207 188 177 154 138 145 152 153 143 180 169 124 99 94 81 32 83 67 16 75 25 64 33 27 17
188 200 190 192 203 228 260 315 352 318 292 274 272 266 251 205 184 181 199 230 203 175 164 156 160 154 147 150 178 145 108 122 116 117 69 38 45 323 60 51 75 47 37 42
189 236 183 199 208 222 284 326 306 278 281 288 288 289 265 171 154 175 186 211 227 175 161 156 157 149 158 158 162 150 127 121 109 114 91 34 42 32 42 8 86 332 90 71
189 232 214 204 232 258 204 275 282 277 279 281 274 278 318 135 155 179 179 187 199 177 157 152 149 149 156 145 141 132 118 119 122 120 123 214 63 19 11 353 53 336 98 101
185 207 215 197 226 298 298 275 262 254 263 275 288 297 313 87 83 79 154 172 178 178 154 144 137 137 139 134 135 135 129 132 135 151 176 195 148 230 262 293 8 322 164 118
179 183 177 216 235 214 244 269 293 309 270 292 319 285 113 89 79 51 38 155 161 158 149 144 140 146 148 149 151 153 151 156 160 181 211 192 175 212 250 200 98 308 335 85
190 174 173 191 243 261 241 266 286 315 310 309 296 276 99 101 104 111 122 220 150 151 154 152 151 154 158 159 160 166 165 168 174 187 209 203 161 194 195 103 349 297 19 75
322 128 147 164 241 287 283 266 286 286 289 294 313 360 109 107 107 125 149 176 183 157 154 158 157 161 164 165 166 173 170 174 176 184 201 203 200 167 114 160 228 307 35 86
290 156 162 152 218 239 279 317 319 304 312 313 316 338 53 68 57 52 124 183 194 167 161 165 161 164 167 165 167 173 175 179 175 180 198 192 179 144 137 272 39 5 5 63
309 278 169 177 215 230 212 242 261 279 282 295 310 330 33 72 67 32 353 246 185 169 164 163 162 167 166 161 166 175 180 182 177 183 188 190 174 173 177 185 150 228 256 217
318 307 257 223 215 314 297 284 287 292 303 309 303 304 80 101 119 141 312 294 204 162 160 162 164 166 166 167 173 180 181 180 177 181 183 191 175 179 202 176 174 214 234 285
345 307 313 359 339 261 261 259 271 283 287 284 285 289 162 172 208 212 212 224 203 170 166 165 167 172 173 173 176 178 182 177 170 176 192 194 182 185 201 186 170 206 196 226
298 286 289 282 276 269 273 265 256 265 272 278 284 297 316 330 336 327 298 237 217 189 178 175 174 178 178 176 179 178 182 173 167 172 194 200 190 188 196 188 163 197 188 191
269 283 295 299 298 289 285 282 272 264 268 275 284 293 314 326 325 320 315 299 262 217 187 181 179 182 183 180 184 183 178 175 173 173 189 201 195 186 183 175 165 189 216 205
281 289 295 293 293 289 282 277 271 269 271 276 283 295 330 332 335 334 331 328 308 273 225 193 184 185 187 186 187 187 175 174 174 176 184 190 197 187 179 185 176 187 212 230
292 293 295 294 300 298 284 283 280 289 310 316 316 335 346 341 337 346 348 340 322 305 271 217 195 190 189 187 187 193 181 175 180 183 184 182 189 192 182 189 182 186 203 215
265 278 287 288 290 278 283 306 329 327 323 346 331 341 345 334 324 15 15 356 341 332 311 256 206 190 188 187 184 187 179 175 182 187 186 179 179 185 181 185 188 193 202 205
241 255 266 271 275 277 287 309 306 295 338 19 10 10 1 347 336 37 20 4 345 330 318 293 230 199 191 192 183 182 182 181 185 188 182 176 173 177 181 189 198 201 202 206
227 240 253 266 277 282 315 7 356 313 306 35 26 17 6 2 0 3 0 355 349 341 331 320 284 227 199 190 181 182 186 184 184 181 176 173 172 174 182 188 196 197 194 202
236 239 243 258 267 277 353 351 330 303 30 37 32 19 8 2 353 343 347 348 343 339 334 330 315 277 223 183 175 185 191 185 176 167 166 169 171 172 173 178 182 186 184 194
298 288 271 268 270 286 26 18 22 21 24 26 22 12 359 347 341 343 344 342 338 338 336 333 321 301 268 195 183 196 201 181 160 156 161 165 166 171 168 162 167 174 177 191
285 298 307 304 322 24 39 42 35 13 358 4 3 357 348 339 337 339 339 338 337 334 333 330 317 300 280 232 204 209 201 168 153 154 159 161 160 163 156 154 163 173 178 190
297 319 310 301 302 319 340 1 5 3 349 346 345 341 337 331 330 332 331 333 335 333 329 323 314 299 283 257 224 211 192 167 158 161 163 163 165 161 154 152 162 169 178 186
301 308 299 293 299 307 321 345 352 347 339 336 335 331 328 326 325 327 327 330 331 329 325 321 313 303 289 271 240 212 195 179 171 167 169 172 171 163 157 133 94 128 98 122
270 273 275 281 302 306 312 329 333 329 328 328 324 321 319 318 319 322 321 323 323 323 324 322 317 310 303 291 260 222 205 188 177 175 178 176 170 162 151 136 101 62 93 95